QPF
0.04 0.04 0.05 0.10 0.14 0.10 0.05 0.04 0.04 0.04 0.04 0.03 0.02 0.02 0.02 0.02 0.02 0.02 0.02 0.01 0.01 0.02 0.03 0.04 0.06 0.06 0.07 0.08 0.07 0.07 0.07 0.06 0.05 0.04 0.04 0.05 0.05 0.08 0.11 0.10 0.07 0.06 0.08
0.05 0.05 0.05 0.13 0.19 0.09 0.05 0.04 0.03 0.04 0.04 0.03 0.02 0.02 0.02 0.04 0.03 0.03 0.02 0.01 0.02 0.03 0.04 0.04 0.06 0.07 0.08 0.07 0.06 0.06 0.05 0.05 0.05 0.04 0.03 0.03 0.04 0.05 0.08 0.12 0.10 0.08 0.09
0.05 0.05 0.05 0.13 0.17 0.09 0.08 0.06 0.04 0.04 0.04 0.04 0.04 0.03 0.03 0.04 0.05 0.04 0.03 0.03 0.03 0.05 0.05 0.06 0.07 0.07 0.06 0.06 0.05 0.04 0.05 0.05 0.04 0.04 0.03 0.02 0.02 0.02 0.05 0.07 0.08 0.08 0.10
0.04 0.05 0.06 0.11 0.12 0.08 0.07 0.07 0.06 0.04 0.04 0.05 0.05 0.05 0.04 0.05 0.05 0.04 0.04 0.05 0.05 0.08 0.07 0.06 0.06 0.05 0.04 0.03 0.04 0.04 0.04 0.04 0.04 0.03 0.03 0.03 0.03 0.02 0.02 0.06 0.07 0.08 0.09
0.04 0.05 0.07 0.10 0.10 0.08 0.09 0.07 0.05 0.05 0.04 0.05 0.05 0.06 0.05 0.04 0.04 0.04 0.04 0.05 0.05 0.07 0.09 0.06 0.04 0.04 0.04 0.03 0.04 0.05 0.04 0.05 0.05 0.05 0.04 0.04 0.03 0.02 0.02 0.03 0.05 0.11 0.10
0.05 0.08 0.08 0.10 0.10 0.11 0.11 0.10 0.08 0.09 0.07 0.07 0.06 0.05 0.04 0.03 0.03 0.03 0.03 0.05 0.04 0.05 0.07 0.07 0.05 0.04 0.03 0.04 0.04 0.05 0.05 0.06 0.06 0.06 0.06 0.06 0.05 0.04 0.03 0.02 0.03 0.06 0.06
0.06 0.08 0.07 0.08 0.09 0.10 0.11 0.11 0.11 0.12 0.10 0.08 0.07 0.05 0.03 0.02 0.02 0.03 0.03 0.03 0.02 0.02 0.03 0.03 0.03 0.04 0.04 0.04 0.05 0.04 0.04 0.04 0.06 0.06 0.05 0.05 0.05 0.05 0.04 0.03 0.03 0.03 0.04
0.06 0.07 0.09 0.08 0.08 0.10 0.11 0.09 0.10 0.09 0.08 0.08 0.08 0.06 0.05 0.05 0.03 0.03 0.02 0.03 0.02 0.02 0.02 0.01 0.01 0.03 0.03 0.05 0.05 0.05 0.04 0.03 0.04 0.04 0.05 0.05 0.05 0.05 0.05 0.05 0.05 0.04 0.05
0.05 0.07 0.07 0.08 0.08 0.08 0.10 0.09 0.08 0.07 0.09 0.09 0.08 0.06 0.05 0.06 0.04 0.02 0.02 0.02 0.02 0.02 0.02 0.01 0.01 0.01 0.02 0.02 0.03 0.05 0.05 0.05 0.05 0.05 0.05 0.04 0.04 0.05 0.07 0.07 0.07 0.05 0.04
0.03 0.05 0.06 0.07 0.07 0.08 0.09 0.09 0.08 0.08 0.11 0.10 0.08 0.07 0.06 0.05 0.06 0.04 0.03 0.02 0.02 0.02 0.02 0.01 0.01 0.01 0.02 0.01 0.02 0.04 0.05 0.05 0.07 0.06 0.06 0.05 0.04 0.03 0.05 0.07 0.08 0.08 0.05
0.04 0.06 0.07 0.07 0.07 0.07 0.08 0.07 0.08 0.07 0.10 0.12 0.10 0.08 0.08 0.06 0.05 0.05 0.04 0.03 0.02 0.01 0.01 0.02 0.02 0.02 0.01 0.02 0.02 0.03 0.04 0.03 0.05 0.05 0.06 0.07 0.06 0.04 0.04 0.04 0.06 0.06 0.05
0.05 0.07 0.07 0.07 0.07 0.06 0.06 0.05 0.06 0.06 0.05 0.06 0.08 0.08 0.09 0.08 0.06 0.04 0.04 0.04 0.03 0.02 0.02 0.01 0.02 0.01 0.01 0.02 0.02 0.02 0.03 0.03 0.03 0.03 0.05 0.08 0.07 0.05 0.04 0.04 0.05 0.05 0.05
0.04 0.05 0.06 0.06 0.06 0.06 0.05 0.04 0.04 0.04 0.04 0.04 0.05 0.05 0.06 0.08 0.08 0.06 0.06 0.04 0.03 0.03 0.02 0.02 0.02 0.02 0.02 0.02 0.03 0.02 0.02 0.03 0.03 0.03 0.03 0.03 0.04 0.05 0.06 0.05 0.06 0.05 0.02
0.05 0.05 0.05 0.05 0.04 0.03 0.03 0.04 0.05 0.04 0.03 0.03 0.03 0.04 0.04 0.04 0.06 0.06 0.05 0.05 0.04 0.03 0.02 0.02 0.02 0.01 0.01 0.02 0.02 0.01 0.01 0.02 0.03 0.03 0.03 0.02 0.02 0.03 0.04 0.06 0.07 0.08 0.04
0.04 0.04 0.04 0.04 0.04 0.03 0.03 0.04 0.04 0.05 0.05 0.04 0.03 0.03 0.03 0.03 0.03 0.05 0.04 0.03 0.04 0.04 0.03 0.02 0.02 0.02 0.02 0.02 0.02 0.01 0.02 0.02 0.01 0.02 0.02 0.01 0.01 0.01 0.01 0.02 0.04 0.07 0.07
0.05 0.04 0.04 0.04 0.04 0.05 0.04 0.04 0.04 0.04 0.06 0.07 0.07 0.06 0.05 0.04 0.04 0.04 0.05 0.04 0.03 0.04 0.04 0.02 0.03 0.03 0.04 0.03 0.02 0.01 0.02 0.01 0.01 0.01 0.01 0.01 0.00 0.00 0.00 0.01 0.01 0.03 0.04
0.05 0.04 0.04 0.04 0.04 0.05 0.04 0.03 0.03 0.03 0.04 0.04 0.04 0.04 0.06 0.05 0.05 0.05 0.06 0.05 0.04 0.03 0.05 0.04 0.04 0.05 0.06 0.05 0.04 0.02 0.02 0.01 0.01 0.01 0.01 0.01 0.00 0.00 0.01 0.01 0.01 0.02 0.05
0.04 0.04 0.04 0.03 0.02 0.02 0.03 0.04 0.03 0.03 0.03 0.03 0.04 0.06 0.05 0.05 0.06 0.05 0.06 0.07 0.07 0.05 0.04 0.04 0.04 0.04 0.04 0.04 0.05 0.04 0.03 0.02 0.01 0.01 0.01 0.01 0.01 0.02 0.02 0.01 0.01 0.01 0.02
0.04 0.04 0.03 0.03 0.03 0.03 0.03 0.03 0.03 0.03 0.03 0.04 0.05 0.06 0.05 0.04 0.06 0.05 0.05 0.06 0.07 0.08 0.06 0.05 0.04 0.04 0.04 0.04 0.06 0.06 0.05 0.04 0.03 0.02 0.02 0.02 0.03 0.03 0.02 0.01 0.01 0.01 0.02
0.02 0.02 0.03 0.03 0.03 0.02 0.02 0.03 0.03 0.04 0.04 0.04 0.04 0.04 0.04 0.04 0.05 0.05 0.05 0.06 0.06 0.08 0.09 0.06 0.04 0.04 0.04 0.04 0.05 0.06 0.07 0.06 0.04 0.03 0.03 0.03 0.04 0.03 0.02 0.01 0.01 0.01 0.02
0.02 0.02 0.03 0.02 0.02 0.02 0.02 0.02 0.03 0.04 0.05 0.05 0.04 0.04 0.03 0.04 0.05 0.05 0.05 0.04 0.05 0.07 0.08 0.07 0.06 0.04 0.04 0.05 0.04 0.04 0.05 0.06 0.05 0.03 0.03 0.03 0.02 0.01 0.01 0.00 0.00 0.00 0.01
0.02 0.02 0.03 0.02 0.02 0.01 0.01 0.01 0.02 0.04 0.05 0.05 0.05 0.04 0.03 0.03 0.03 0.04 0.04 0.04 0.05 0.07 0.07 0.08 0.07 0.06 0.05 0.04 0.04 0.04 0.04 0.05 0.05 0.04 0.03 0.02 0.02 0.01 0.01 0.01 0.00 0.00 0.00
0.02 0.03 0.03 0.03 0.03 0.02 0.01 0.01 0.01 0.04 0.04 0.03 0.03 0.04 0.03 0.03 0.03 0.03 0.03 0.04 0.04 0.06 0.07 0.08 0.09 0.08 0.07 0.05 0.04 0.04 0.05 0.05 0.04 0.04 0.03 0.03 0.02 0.02 0.01 0.01 0.00 0.00 0.00
0.03 0.03 0.03 0.03 0.04 0.03 0.02 0.01 0.02 0.03 0.04 0.04 0.03 0.03 0.04 0.03 0.03 0.03 0.03 0.03 0.03 0.04 0.05 0.06 0.07 0.07 0.07 0.07 0.06 0.05 0.05 0.05 0.05 0.05 0.05 0.04 0.03 0.02 0.01 0.01 0.01 0.00 0.00
0.04 0.03 0.03 0.03 0.05 0.05 0.03 0.02 0.02 0.03 0.03 0.03 0.03 0.02 0.02 0.02 0.02 0.02 0.02 0.03 0.02 0.03 0.04 0.04 0.05 0.05 0.06 0.06 0.07 0.07 0.07 0.06 0.05 0.05 0.05 0.04 0.03 0.03 0.02 0.01 0.01 0.01 0.00
0.04 0.03 0.03 0.03 0.04 0.06 0.05 0.03 0.03 0.02 0.03 0.04 0.04 0.03 0.02 0.01 0.01 0.01 0.01 0.02 0.03 0.04 0.04 0.04 0.04 0.04 0.05 0.05 0.05 0.06 0.07 0.07 0.06 0.05 0.04 0.04 0.04 0.05 0.04 0.02 0.02 0.02 0.02
MSLP
1005.61 1005.74 1006.03 1006.46 1007.04 1007.74 1008.53 1009.40 1010.30 1011.20 1012.08 1012.91 1013.68 1014.40 1015.06 1015.67 1016.23 1016.76 1017.25 1017.71 1018.14 1018.53 1018.90 1019.24 1019.56 1019.85 1020.12 1020.35 1020.56 1020.73 1020.88 1021.00 1021.10 1021.18 1021.27 1021.35 1021.44 1021.53 1021.60 1021.64 1021.65 1021.60 1021.51
1005.80 1005.97 1006.32 1006.85 1007.54 1008.37 1009.28 1010.24 1011.21 1012.15 1013.03 1013.84 1014.57 1015.22 1015.81 1016.34 1016.83 1017.29 1017.72 1018.13 1018.53 1018.91 1019.27 1019.61 1019.93 1020.23 1020.50 1020.75 1020.97 1021.16 1021.32 1021.46 1021.58 1021.69 1021.79 1021.89 1021.99 1022.07 1022.13 1022.16 1022.15 1022.10 1021.99
1006.09 1006.28 1006.69 1007.29 1008.07 1008.98 1009.99 1011.03 1012.06 1013.04 1013.93 1014.73 1015.43 1016.04 1016.58 1017.05 1017.48 1017.88 1018.25 1018.62 1018.97 1019.32 1019.66 1019.98 1020.29 1020.59 1020.86 1021.12 1021.34 1021.55 1021.73 1021.88 1022.02 1022.15 1022.27 1022.37 1022.47 1022.54 1022.60 1022.62 1022.60 1022.53 1022.42
1006.53 1006.73 1007.16 1007.81 1008.64 1009.61 1010.67 1011.76 1012.82 1013.82 1014.72 1015.51 1016.20 1016.78 1017.29 1017.72 1018.12 1018.47 1018.81 1019.14 1019.45 1019.76 1020.07 1020.37 1020.66 1020.94 1021.21 1021.46 1021.69 1021.90 1022.09 1022.26 1022.41 1022.55 1022.67 1022.78 1022.87 1022.94 1022.99 1023.00 1022.97 1022.90 1022.79
1007.14 1007.35 1007.80 1008.46 1009.31 1010.29 1011.35 1012.44 1013.49 1014.48 1015.36 1016.14 1016.80 1017.38 1017.87 1018.30 1018.67 1019.02 1019.34 1019.64 1019.93 1020.22 1020.49 1020.76 1021.03 1021.28 1021.54 1021.78 1022.00 1022.22 1022.42 1022.59 1022.76 1022.90 1023.03 1023.13 1023.21 1023.27 1023.30 1023.30 1023.26 1023.19 1023.08
1007.95 1008.18 1008.63 1009.29 1010.11 1011.06 1012.08 1013.11 1014.10 1015.02 1015.85 1016.59 1017.23 1017.79 1018.28 1018.72 1019.11 1019.47 1019.79 1020.10 1020.38 1020.64 1020.90 1021.14 1021.38 1021.62 1021.85 1022.08 1022.31 1022.52 1022.73 1022.92 1023.08 1023.23 1023.35 1023.44 1023.50 1023.54 1023.55 1023.52 1023.47 1023.40 1023.29
1008.95 1009.22 1009.68 1010.31 1011.09 1011.96 1012.88 1013.80 1014.68 1015.49 1016.23 1016.89 1017.49 1018.03 1018.52 1018.98 1019.40 1019.79 1020.14 1020.46 1020.76 1021.02 1021.26 1021.48 1021.70 1021.92 1022.15 1022.37 1022.60 1022.83 1023.04 1023.24 1023.41 1023.55 1023.65 1023.72 1023.76 1023.77 1023.74 1023.69 1023.62 1023.52 1023.41
1010.12 1010.44 1010.91 1011.51 1012.22 1012.99 1013.77 1014.54 1015.26 1015.92 1016.52 1017.08 1017.60 1018.11 1018.60 1019.08 1019.54 1019.97 1020.37 1020.72 1021.04 1021.31 1021.55 1021.77 1021.98 1022.19 1022.41 1022.64 1022.88 1023.12 1023.35 1023.56 1023.73 1023.87 1023.96 1024.01 1024.01 1023.97 1023.90 1023.81 1023.70 1023.58 1023.44
1011.38 1011.76 1012.25 1012.83 1013.46 1014.11 1014.73 1015.32 1015.84 1016.32 1016.77 1017.19 1017.63 1018.08 1018.56 1019.05 1019.54 1020.02 1020.47 1020.87 1021.21 1021.50 1021.75 1021.97 1022.18 1022.39 1022.62 1022.86 1023.12 1023.38 1023.64 1023.86 1024.05 1024.18 1024.26 1024.28 1024.24 1024.16 1024.03 1023.89 1023.73 1023.57 1023.40
1012.63 1013.09 1013.61 1014.16 1014.72 1015.24 1015.71 1016.10 1016.43 1016.72 1016.99 1017.28 1017.61 1017.99 1018.44 1018.94 1019.46 1019.98 1020.46 1020.90 1021.27 1021.58 1021.85 1022.07 1022.29 1022.51 1022.75 1023.02 1023.30 1023.59 1023.87 1024.12 1024.32 1024.45 1024.52 1024.51 1024.44 1024.31 1024.14 1023.94 1023.73 1023.52 1023.31
1013.75 1014.29 1014.84 1015.38 1015.87 1016.29 1016.60 1016.82 1016.97 1017.08 1017.19 1017.34 1017.57 1017.89 1018.31 1018.80 1019.33 1019.87 1020.39 1020.85 1021.24 1021.57 1021.84 1022.08 1022.30 1022.53 1022.79 1023.07 1023.38 1023.70 1024.01 1024.28 1024.49 1024.64 1024.70 1024.68 1024.58 1024.41 1024.20 1023.96 1023.70 1023.45 1023.20
1014.64 1015.25 1015.84 1016.38 1016.82 1017.14 1017.34 1017.42 1017.42 1017.39 1017.36 1017.40 1017.55 1017.81 1018.18 1018.66 1019.19 1019.74 1020.26 1020.74 1021.14 1021.47 1021.75 1021.99 1022.22 1022.46 1022.72 1023.02 1023.35 1023.69 1024.02 1024.31 1024.54 1024.70 1024.76 1024.73 1024.62 1024.44 1024.21 1023.94 1023.66 1023.38 1023.11
1015.24 1015.90 1016.52 1017.05 1017.46 1017.72 1017.84 1017.83 1017.74 1017.61 1017.50 1017.46 1017.54 1017.76 1018.10 1018.55 1019.06 1019.60 1020.12 1020.59 1020.99 1021.32 1021.59 1021.83 1022.05 1022.30 1022.57 1022.88 1023.21 1023.56 1023.90 1024.21 1024.45 1024.61 1024.68 1024.66 1024.56 1024.39 1024.16 1023.89 1023.61 1023.32 1023.04
1015.51 1016.21 1016.85 1017.38 1017.77 1018.00 1018.09 1018.04 1017.90 1017.73 1017.58 1017.52 1017.57 1017.75 1018.07 1018.48 1018.97 1019.48 1019.98 1020.43 1020.81 1021.12 1021.39 1021.61 1021.83 1022.07 1022.34 1022.64 1022.98 1023.32 1023.66 1023.96 1024.21 1024.38 1024.46 1024.46 1024.38 1024.23 1024.03 1023.79 1023.53 1023.27 1023.00
1015.50 1016.21 1016.85 1017.38 1017.77 1018.00 1018.09 1018.05 1017.92 1017.77 1017.64 1017.58 1017.63 1017.80 1018.09 1018.47 1018.92 1019.40 1019.86 1020.27 1020.62 1020.92 1021.16 1021.38 1021.59 1021.82 1022.07 1022.37 1022.68 1023.01 1023.33 1023.62 1023.85 1024.02 1024.11 1024.13 1024.08 1023.97 1023.81 1023.63 1023.42 1023.20 1022.97
1015.28 1015.98 1016.61 1017.13 1017.53 1017.78 1017.90 1017.91 1017.84 1017.75 1017.66 1017.64 1017.71 1017.89 1018.16 1018.51 1018.92 1019.34 1019.75 1020.12 1020.44 1020.70 1020.93 1021.14 1021.34 1021.56 1021.80 1022.07 1022.37 1022.66 1022.95 1023.21 1023.42 1023.57 1023.66 1023.69 1023.67 1023.61 1023.51 1023.38 1023.24 1023.09 1022.92
1014.94 1015.61 1016.21 1016.73 1017.14 1017.43 1017.61 1017.69 1017.71 1017.70 1017.69 1017.73 1017.84 1018.02 1018.28 1018.59 1018.95 1019.31 1019.66 1019.98 1020.26 1020.50 1020.71 1020.91 1021.11 1021.32 1021.55 1021.80 1022.06 1022.32 1022.57 1022.78 1022.96 1023.08 1023.16 1023.19 1023.19 1023.16 1023.11 1023.05 1022.98 1022.89 1022.79
1014.59 1015.21 1015.78 1016.28 1016.70 1017.04 1017.28 1017.45 1017.57 1017.65 1017.74 1017.84 1017.98 1018.18 1018.41 1018.69 1018.99 1019.29 1019.58 1019.85 1020.09 1020.31 1020.52 1020.71 1020.91 1021.12 1021.34 1021.56 1021.79 1022.01 1022.21 1022.38 1022.50 1022.59 1022.64 1022.66 1022.66 1022.65 1022.64 1022.63 1022.61 1022.59 1022.56
1014.28 1014.85 1015.38 1015.86 1016.29 1016.67 1016.98 1017.23 1017.44 1017.62 1017.79 1017.95 1018.13 1018.33 1018.55 1018.78 1019.03 1019.27 1019.51 1019.73 1019.94 1020.14 1020.34 1020.53 1020.73 1020.94 1021.15 1021.36 1021.56 1021.74 1021.89 1022.01 1022.08 1022.13 1022.14 1022.13 1022.12 1022.11 1022.12 1022.13 1022.16 1022.20 1022.23
1014.03 1014.54 1015.03 1015.50 1015.94 1016.34 1016.71 1017.03 1017.33 1017.59 1017.82 1018.04 1018.25 1018.45 1018.65 1018.85 1019.05 1019.24 1019.43 1019.62 1019.81 1019.99 1020.18 1020.38 1020.58 1020.79 1020.99 1021.19 1021.36 1021.50 1021.61 1021.68 1021.71 1021.70 1021.68 1021.64 1021.60 1021.58 1021.58 1021.61 1021.66 1021.73 1021.80
1013.80 1014.27 1014.72 1015.17 1015.61 1016.03 1016.44 1016.82 1017.18 1017.50 1017.79 1018.06 1018.29 1018.50 1018.69 1018.87 1019.04 1019.20 1019.36 1019.52 1019.69 1019.87 1020.05 1020.25 1020.44 1020.65 1020.84 1021.01 1021.17 1021.28 1021.35 1021.39 1021.38 1021.34 1021.27 1021.20 1021.13 1021.09 1021.07 1021.09 1021.15 1021.23 1021.34
1013.54 1013.97 1014.40 1014.83 1015.26 1015.70 1016.13 1016.55 1016.95 1017.32 1017.66 1017.96 1018.22 1018.45 1018.65 1018.83 1018.99 1019.14 1019.29 1019.44 1019.60 1019.77 1019.94 1020.13 1020.32 1020.50 1020.68 1020.83 1020.96 1021.05 1021.10 1021.11 1021.08 1021.02 1020.93 1020.84 1020.75 1020.68 1020.64 1020.64 1020.69 1020.77 1020.88
1013.17 1013.59 1014.00 1014.41 1014.84 1015.28 1015.72 1016.17 1016.60 1017.01 1017.39 1017.73 1018.03 1018.29 1018.51 1018.71 1018.89 1019.05 1019.21 1019.37 1019.53 1019.69 1019.86 1020.03 1020.19 1020.35 1020.50 1020.63 1020.73 1020.81 1020.84 1020.84 1020.81 1020.74 1020.65 1020.55 1020.45 1020.37 1020.31 1020.29 1020.32 1020.38 1020.49
1012.66 1013.07 1013.47 1013.88 1014.30 1014.74 1015.19 1015.65 1016.11 1016.55 1016.96 1017.35 1017.69 1018.00 1018.27 1018.52 1018.74 1018.94 1019.13 1019.30 1019.47 1019.63 1019.78 1019.93 1020.06 1020.18 1020.30 1020.39 1020.47 1020.53 1020.56 1020.57 1020.55 1020.50 1020.43 1020.34 1020.25 1020.16 1020.10 1020.06 1020.05 1020.09 1020.17
1011.98 1012.40 1012.81 1013.22 1013.64 1014.08 1014.54 1015.01 1015.49 1015.96 1016.41 1016.84 1017.24 1017.60 1017.94 1018.25 1018.53 1018.78 1019.01 1019.22 1019.40 1019.56 1019.70 1019.81 1019.91 1019.99 1020.06 1020.12 1020.17 1020.22 1020.26 1020.28 1020.29 1020.27 1020.24 1020.18 1020.11 1020.04 1019.97 1019.91 1019.88 1019.88 1019.92
1011.17 1011.62 1012.04 1012.46 1012.89 1013.34 1013.81 1014.30 1014.79 1015.29 1015.78 1016.25 1016.70 1017.13 1017.53 1017.91 1018.25 1018.57 1018.85 1019.09 1019.29 1019.45 1019.57 1019.66 1019.71 1019.75 1019.78 1019.81 1019.84 1019.88 1019.92 1019.97 1020.01 1020.04 1020.05 1020.03 1020.00 1019.94 1019.87 1019.81 1019.75 1019.71 1019.70
Thickness
5746 5744 5742 5741 5741 5740 5740 5738 5738 5738 5738 5738 5738 5737 5737 5737 5737 5737 5734 5730 5728 5728 5728 5728 5727 5726 5725 5724 5723 5722 5721 5721 5720 5720 5719 5718 5718 5717 5716 5715 5715 5714 5712
5742 5741 5740 5738 5738 5738 5737 5736 5735 5735 5735 5735 5735 5734 5734 5735 5733 5733 5733 5729 5727 5726 5726 5726 5726 5725 5723 5722 5722 5721 5720 5719 5719 5718 5717 5717 5716 5716 5715 5714 5713 5712 5711
5739 5737 5738 5736 5735 5734 5732 5732 5732 5732 5732 5732 5731 5732 5731 5731 5731 5730 5730 5730 5728 5724 5724 5724 5724 5723 5722 5720 5720 5719 5718 5717 5717 5716 5715 5715 5714 5714 5713 5713 5712 5711 5709
5736 5735 5735 5735 5732 5732 5731 5730 5730 5729 5729 5729 5729 5729 5729 5728 5728 5728 5728 5728 5727 5726 5723 5721 5720 5720 5719 5718 5718 5717 5717 5716 5715 5714 5714 5713 5713 5712 5712 5711 5711 5710 5708
5733 5733 5732 5731 5730 5730 5729 5729 5727 5726 5725 5725 5725 5725 5727 5727 5726 5726 5725 5725 5724 5723 5723 5719 5718 5717 5717 5717 5716 5715 5715 5714 5713 5713 5712 5712 5711 5710 5710 5709 5708 5707 5706
5731 5730 5730 5727 5728 5728 5726 5725 5723 5722 5723 5722 5724 5723 5723 5724 5724 5724 5723 5722 5721 5721 5721 5719 5718 5716 5715 5715 5714 5714 5713 5712 5712 5711 5710 5710 5709 5708 5708 5707 5706 5705 5704
5729 5728 5729 5725 5725 5725 5723 5723 5721 5719 5719 5719 5718 5716 5719 5721 5721 5720 5720 5720 5720 5719 5718 5717 5717 5717 5716 5713 5712 5711 5711 5711 5711 5710 5709 5708 5707 5706 5705 5704 5703 5702 5701
5727 5727 5724 5724 5723 5721 5720 5719 5718 5717 5717 5717 5715 5712 5710 5712 5714 5718 5718 5717 5718 5717 5717 5716 5715 5714 5715 5714 5711 5709 5709 5709 5709 5708 5706 5705 5704 5703 5702 5702 5701 5700 5699
5725 5724 5723 5722 5721 5720 5718 5716 5715 5714 5713 5714 5716 5713 5709 5707 5711 5714 5713 5714 5714 5715 5716 5715 5713 5712 5712 5711 5710 5707 5706 5706 5706 5705 5704 5703 5702 5701 5700 5699 5698 5697 5696
5723 5722 5721 5719 5718 5718 5716 5714 5714 5714 5712 5711 5712 5712 5713 5713 5708 5707 5710 5712 5712 5711 5712 5713 5712 5710 5709 5709 5707 5705 5704 5703 5703 5703 5701 5700 5699 5698 5697 5696 5696 5695 5694
5719 5719 5717 5716 5714 5714 5712 5711 5710 5710 5711 5710 5710 5710 5709 5709 5710 5706 5705 5707 5709 5710 5710 5709 5709 5709 5708 5707 5706 5703 5701 5700 5700 5699 5698 5697 5696 5695 5694 5694 5693 5692 5691
5716 5715 5714 5713 5711 5710 5709 5708 5707 5707 5707 5707 5707 5708 5707 5706 5706 5706 5704 5703 5704 5707 5706 5707 5707 5707 5706 5706 5703 5701 5699 5697 5696 5695 5695 5694 5693 5692 5691 5691 5690 5689 5689
5713 5711 5711 5709 5708 5706 5706 5704 5703 5703 5703 5702 5702 5704 5705 5705 5706 5705 5703 5702 5702 5704 5704 5705 5706 5705 5705 5703 5701 5697 5696 5694 5693 5692 5691 5690 5689 5689 5688 5687 5687 5687 5686
5711 5708 5706 5704 5703 5703 5702 5700 5700 5699 5699 5698 5700 5700 5701 5702 5703 5702 5701 5700 5698 5700 5702 5702 5704 5703 5702 5701 5698 5695 5695 5692 5690 5689 5688 5687 5686 5685 5685 5684 5684 5683 5683
5706 5703 5701 5700 5699 5697 5697 5697 5696 5695 5695 5695 5696 5696 5696 5698 5699 5699 5699 5699 5696 5694 5696 5698 5700 5699 5698 5697 5694 5693 5693 5690 5688 5686 5685 5684 5683 5683 5682 5681 5681 5680 5680
5701 5699 5697 5695 5694 5692 5691 5691 5691 5691 5690 5691 5691 5691 5691 5694 5694 5695 5695 5696 5695 5694 5692 5697 5696 5696 5693 5694 5691 5690 5690 5687 5686 5684 5682 5681 5680 5679 5679 5678 5678 5677 5677
5696 5695 5693 5691 5689 5688 5687 5686 5687 5687 5686 5686 5687 5687 5687 5688 5689 5690 5691 5691 5691 5691 5687 5691 5693 5691 5688 5688 5688 5687 5687 5686 5686 5682 5680 5678 5677 5676 5676 5675 5674 5674 5673
5692 5691 5690 5687 5686 5684 5683 5682 5682 5683 5682 5682 5682 5682 5682 5683 5682 5684 5685 5685 5685 5685 5684 5682 5685 5686 5684 5684 5684 5683 5685 5685 5684 5680 5678 5676 5675 5674 5673 5672 5671 5671 5670
5687 5687 5685 5683 5682 5681 5680 5678 5678 5678 5678 5678 5678 5677 5677 5677 5676 5678 5678 5679 5680 5681 5680 5680 5681 5681 5681 5680 5679 5680 5681 5680 5681 5680 5677 5675 5673 5671 5670 5670 5669 5668 5668
5683 5682 5681 5679 5678 5677 5676 5675 5674 5673 5673 5673 5674 5673 5673 5672 5671 5671 5672 5672 5673 5674 5675 5675 5676 5677 5676 5676 5675 5675 5676 5676 5677 5678 5675 5674 5672 5670 5669 5668 5667 5666 5665
5679 5678 5676 5675 5674 5672 5671 5670 5669 5669 5667 5667 5668 5669 5669 5667 5666 5665 5667 5667 5667 5668 5669 5670 5671 5672 5671 5669 5670 5672 5672 5672 5673 5674 5673 5673 5672 5671 5670 5668 5666 5664 5663
5673 5672 5671 5670 5668 5668 5664 5662 5662 5664 5663 5663 5663 5663 5664 5663 5660 5659 5659 5659 5659 5660 5662 5663 5665 5665 5665 5666 5666 5666 5666 5665 5665 5670 5668 5670 5671 5671 5670 5669 5667 5664 5661
5667 5666 5665 5665 5663 5661 5657 5655 5654 5657 5658 5658 5658 5658 5660 5661 5657 5657 5655 5653 5654 5654 5654 5656 5658 5659 5660 5662 5660 5659 5659 5659 5660 5664 5663 5664 5668 5668 5669 5669 5665 5661 5659
5661 5659 5659 5658 5657 5655 5651 5649 5648 5651 5653 5653 5654 5653 5652 5653 5653 5651 5652 5652 5653 5653 5652 5652 5654 5656 5656 5656 5655 5655 5654 5654 5655 5658 5658 5658 5663 5664 5666 5665 5662 5659 5657
5654 5653 5653 5652 5651 5649 5645 5643 5641 5646 5648 5648 5649 5649 5648 5647 5645 5643 5645 5647 5648 5650 5649 5648 5648 5649 5648 5649 5648 5648 5649 5649 5651 5654 5655 5654 5657 5658 5660 5661 5660 5656 5654
5648 5648 5648 5646 5645 5643 5640 5637 5635 5641 5643 5644 5644 5644 5642 5640 5638 5636 5639 5642 5642 5644 5645 5645 5644 5643 5644 5644 5642 5643 5645 5645 5647 5649 5652 5649 5651 5651 5652 5657 5657 5654 5650